Time,TemperatureF,DewpointF,PressureIn,WindDirection,WindDirectionDegrees,WindSpeedMPH,WindSpeedGustMPH,Humidity,HourlyPrecipIn,Conditions,Clouds,dailyrainin,SolarRadiationWatts/m^2,SoftwareType,DateUTC
2013-06-14 00:00:00,59.5,-99.9,30.02,SSW,203,0.0,0.0,255,0.00,,,0.00,0,Wunderground v.1.15,2013-06-14 07:00:00,
2013-06-14 00:09:00,59.2,42.1,30.02,SSW,203,0.0,0.0,53,0.00,,,0.00,0,Wunderground v.1.15,2013-06-14 07:09:00,
2013-06-14 00:19:00,58.8,40.7,30.01,SSW,203,0.0,0.0,51,0.00,,,0.00,0,Wunderground v.1.15,2013-06-14 07:19:00,
2013-06-14 00:25:00,58.7,40.6,30.01,SSW,203,0.0,0.0,51,0.00,,,0.00,0,Wunderground v.1.15,2013-06-14 07:25:00,
2013-06-14 00:34:00,58.4,43.2,30.01,SSW,203,0.0,0.0,57,0.00,,,0.00,0,Wunderground v.1.15,2013-06-14 07:34:00,
2013-06-14 00:39:00,58.1,44.3,30.01,SSW,203,0.0,0.0,60,0.00,,,0.00,0,Wunderground v.1.15,2013-06-14 07:39:00,
2013-06-14 00:49:00,57.6,45.5,30.01,SSW,203,0.0,0.0,64,0.00,,,0.00,0,Wunderground v.1.15,2013-06-14 07:49:00,
2013-06-14 00:55:00,57.3,43.5,30.01,SSW,203,0.0,0.0,60,0.00,,,0.00,0,Wunderground v.1.15,2013-06-14 07:55:00,
2013-06-14 01:00:00,57.3,45.2,30.01,SSW,203,0.0,0.0,64,0.00,,,0.00,0,Wunderground v.1.15,2013-06-14 08:00:00,
2013-06-14 01:09:00,57.1,42.9,30.00,SSW,203,0.0,0.0,59,0.00,,,0.00,0,Wunderground v.1.15,2013-06-14 08:09:00,
2013-06-14 01:19:00,57.0,42.4,30.00,SSW,203,0.0,0.0,58,0.00,,,0.00,0,Wunderground v.1.15,2013-06-14 08:19:00,
2013-06-14 01:24:00,56.9,41.8,30.00,SSW,203,1.0,1.0,57,0.00,,,0.00,0,Wunderground v.1.15,2013-06-14 08:24:00,
2013-06-14 01:29:00,56.8,41.7,30.00,SSW,203,0.0,0.0,57,0.00,,,0.00,0,Wunderground v.1.15,2013-06-14 08:29:00,
2013-06-14 01:39:00,57.1,42.0,29.99,SSW,203,1.0,1.0,57,0.00,,,0.00,0,Wunderground v.1.15,2013-06-14 08:39:00,
2013-06-14 01:45:00,57.2,42.1,29.99,South,184,2.0,2.0,57,0.00,,,0.00,0,Wunderground v.1.15,2013-06-14 08:45:00,
2013-06-14 01:50:00,57.3,42.2,29.99,South,184,0.0,0.0,57,0.00,,,0.00,0,Wunderground v.1.15,2013-06-14 08:50:00,
2013-06-14 01:59:00,57.5,41.0,29.98,South,184,1.0,1.0,54,0.00,,,0.00,0,Wunderground v.1.15,2013-06-14 08:59:00,
2013-06-14 02:09:00,57.5,39.5,29.98,South,177,2.0,2.0,51,0.00,,,0.00,0,Wunderground v.1.15,2013-06-14 09:09:00,
2013-06-14 02:15:00,57.3,39.3,29.98,South,178,0.0,2.0,51,0.00,,,0.00,0,Wunderground v.1.15,2013-06-14 09:15:00,
2013-06-14 02:24:00,56.9,39.4,29.98,South,174,2.0,2.0,52,0.00,,,0.00,0,Wunderground v.1.15,2013-06-14 09:24:00,
2013-06-14 02:29:00,56.8,39.4,29.98,South,174,0.0,0.0,52,0.00,,,0.00,0,Wunderground v.1.15,2013-06-14 09:29:00,
2013-06-14 02:39:00,56.3,39.4,29.98,South,174,0.0,0.0,53,0.00,,,0.00,0,Wunderground v.1.15,2013-06-14 09:39:00,
2013-06-14 02:45:00,56.0,40.5,29.98,South,174,0.0,0.0,56,0.00,,,0.00,0,Wunderground v.1.15,2013-06-14 09:45:00,
2013-06-14 02:50:00,55.7,39.8,29.98,South,174,0.0,0.0,55,0.00,,,0.00,0,Wunderground v.1.15,2013-06-14 09:50:00,
2013-06-14 02:55:00,55.4,36.5,29.98,South,174,3.0,3.0,49,0.00,,,0.00,0,Wunderground v.1.15,2013-06-14 09:55:00,
2013-06-14 03:00:00,55.5,37.1,29.99,NE,41,0.0,0.0,50,0.00,,,0.00,0,Wunderground v.1.15,2013-06-14 10:00:00,
2013-06-14 03:09:00,55.7,37.8,29.98,NE,41,0.0,0.0,51,0.00,,,0.00,0,Wunderground v.1.15,2013-06-14 10:09:00,
2013-06-14 03:19:00,55.3,37.5,29.98,ESE,117,2.0,2.0,51,0.00,,,0.00,0,Wunderground v.1.15,2013-06-14 10:19:00,
2013-06-14 03:25:00,54.8,37.0,29.98,South,174,3.0,3.0,51,0.00,,,0.00,0,Wunderground v.1.15,2013-06-14 10:25:00,
2013-06-14 03:30:00,54.0,36.8,29.97,South,185,3.0,3.0,52,0.00,,,0.00,0,Wunderground v.1.15,2013-06-14 10:30:00,
2013-06-14 03:39:00,53.2,43.3,29.97,South,177,0.0,0.0,69,0.00,,,0.00,0,Wunderground v.1.15,2013-06-14 10:39:00,
2013-06-14 03:45:00,53.5,44.0,29.97,South,185,1.0,1.0,70,0.00,,,0.00,0,Wunderground v.1.15,2013-06-14 10:45:00,
2013-06-14 03:50:00,53.8,44.6,29.97,South,185,2.0,2.0,71,0.00,,,0.00,0,Wunderground v.1.15,2013-06-14 10:50:00,
2013-06-14 04:00:00,54.0,44.1,29.96,South,185,2.0,2.0,69,0.00,,,0.00,0,Wunderground v.1.15,2013-06-14 11:00:00,
2013-06-14 04:09:00,54.0,43.3,29.96,South,185,0.0,0.0,67,0.00,,,0.00,0,Wunderground v.1.15,2013-06-14 11:09:00,
2013-06-14 04:19:00,53.9,43.2,29.96,South,185,0.0,0.0,67,0.00,,,0.00,0,Wunderground v.1.15,2013-06-14 11:19:00,
2013-06-14 04:25:00,53.9,43.6,29.96,South,185,1.0,1.0,68,0.00,,,0.00,0,Wunderground v.1.15,2013-06-14 11:25:00,
2013-06-14 04:34:00,54.1,44.2,29.96,SSE,149,0.0,0.0,69,0.00,,,0.00,0,Wunderground v.1.15,2013-06-14 11:34:00,
2013-06-14 04:40:00,54.0,44.1,29.96,SE,141,0.0,0.0,69,0.00,,,0.00,0,Wunderground v.1.15,2013-06-14 11:40:00,
2013-06-14 04:49:00,54.0,44.1,29.96,North,1,3.0,3.0,69,0.00,,,0.00,0,Wunderground v.1.15,2013-06-14 11:49:00,
2013-06-14 04:59:00,53.8,43.9,29.95,North,10,1.0,1.0,69,0.00,,,0.00,0,Wunderground v.1.15,2013-06-14 11:59:00,
2013-06-14 05:05:00,53.8,43.9,29.96,North,10,0.0,1.0,69,0.00,,,0.00,0,Wunderground v.1.15,2013-06-14 12:05:00,
2013-06-14 05:14:00,53.5,44.0,29.96,North,10,1.0,1.0,70,0.00,,,0.00,0,Wunderground v.1.15,2013-06-14 12:14:00,
2013-06-14 05:19:00,53.3,43.8,29.96,North,10,0.0,0.0,70,0.00,,,0.00,0,Wunderground v.1.15,2013-06-14 12:19:00,
2013-06-14 05:29:00,52.9,44.1,29.96,North,10,0.0,0.0,72,0.00,,,0.00,0,Wunderground v.1.15,2013-06-14 12:29:00,
2013-06-14 05:34:00,52.7,40.5,29.96,North,10,0.0,0.0,63,0.00,,,0.00,0,Wunderground v.1.15,2013-06-14 12:34:00,
2013-06-14 05:40:00,52.6,45.6,29.95,North,10,0.0,0.0,77,0.00,,,0.00,0,Wunderground v.1.15,2013-06-14 12:40:00,
2013-06-14 05:49:00,52.7,46.4,29.96,North,10,0.0,0.0,79,0.00,,,0.00,0,Wunderground v.1.15,2013-06-14 12:49:00,
2013-06-14 05:59:00,52.6,45.9,29.96,NNE,16,0.0,0.0,78,0.00,,,0.00,0,Wunderground v.1.15,2013-06-14 12:59:00,
2013-06-14 06:05:00,52.6,45.6,29.96,NNE,16,0.0,0.0,77,0.00,,,0.00,0,Wunderground v.1.15,2013-06-14 13:05:00,
2013-06-14 06:10:00,52.6,45.9,29.96,NNE,16,0.0,0.0,78,0.00,,,0.00,0,Wunderground v.1.15,2013-06-14 13:10:00,
2013-06-14 06:19:00,52.8,46.1,29.96,NNE,16,0.0,0.0,78,0.00,,,0.00,0,Wunderground v.1.15,2013-06-14 13:19:00,
2013-06-14 06:29:00,52.7,46.4,29.96,NNE,16,0.0,0.0,79,0.00,,,0.00,0,Wunderground v.1.15,2013-06-14 13:29:00,
2013-06-14 06:35:00,52.6,46.3,29.96,NNE,16,0.0,0.0,79,0.00,,,0.00,0,Wunderground v.1.15,2013-06-14 13:35:00,
2013-06-14 06:40:00,52.7,46.7,29.96,NNE,16,0.0,0.0,80,0.00,,,0.00,0,Wunderground v.1.15,2013-06-14 13:40:00,
2013-06-14 06:45:00,52.7,46.7,29.96,NNE,16,0.0,0.0,80,0.00,,,0.00,0,Wunderground v.1.15,2013-06-14 13:45:00,
2013-06-14 06:50:00,52.9,47.2,29.96,ENE,66,0.0,0.0,81,0.00,,,0.00,0,Wunderground v.1.15,2013-06-14 13:50:00,
2013-06-14 06:59:00,53.7,48.0,29.96,ENE,69,0.0,0.0,81,0.00,,,0.00,0,Wunderground v.1.15,2013-06-14 13:59:00,
2013-06-14 07:09:00,54.9,49.2,29.95,ENE,63,0.0,0.0,81,0.00,,,0.00,0,Wunderground v.1.15,2013-06-14 14:09:00,
2013-06-14 07:19:00,56.2,49.8,29.95,ENE,63,0.0,0.0,79,0.00,,,0.00,0,Wunderground v.1.15,2013-06-14 14:19:00,
2013-06-14 07:25:00,57.0,50.2,29.95,NE,36,1.0,1.0,78,0.00,,,0.00,0,Wunderground v.1.15,2013-06-14 14:25:00,
2013-06-14 07:30:00,57.6,50.8,29.96,NE,36,0.0,0.0,78,0.00,,,0.00,0,Wunderground v.1.15,2013-06-14 14:30:00,
2013-06-14 07:40:00,59.1,51.9,29.95,WSW,238,0.0,0.0,77,0.00,,,0.00,0,Wunderground v.1.15,2013-06-14 14:40:00,
2013-06-14 07:49:00,60.7,52.7,29.95,WSW,238,0.0,0.0,75,0.00,,,0.00,0,Wunderground v.1.15,2013-06-14 14:49:00,
2013-06-14 08:00:00,63.0,53.4,29.95,WSW,241,0.0,0.0,71,0.00,,,0.00,0,Wunderground v.1.15,2013-06-14 15:00:00,
2013-06-14 09:20:00,74.3,51.0,29.95,North,4,4.0,4.0,44,0.00,,,0.00,0,Wunderground v.1.15,2013-06-14 16:20:00,
2013-06-14 09:29:00,74.8,49.5,29.95,NNE,24,10.0,10.0,41,0.00,,,0.00,0,Wunderground v.1.15,2013-06-14 16:29:00,
2013-06-14 09:34:00,74.8,50.2,29.95,North,3,7.0,10.0,42,0.00,,,0.00,0,Wunderground v.1.15,2013-06-14 16:34:00,
2013-06-14 09:40:00,75.1,49.1,29.95,NNE,21,10.0,10.0,40,0.00,,,0.00,0,Wunderground v.1.15,2013-06-14 16:40:00,
2013-06-14 09:45:00,74.9,48.3,29.95,NE,40,2.0,10.0,39,0.00,,,0.00,0,Wunderground v.1.15,2013-06-14 16:45:00,
2013-06-14 09:54:00,75.3,49.3,29.94,North,2,2.0,4.0,40,0.00,,,0.00,0,Wunderground v.1.15,2013-06-14 16:54:00,
2013-06-14 09:59:00,75.6,48.9,29.94,NNE,14,7.0,7.0,39,0.00,,,0.00,0,Wunderground v.1.15,2013-06-14 16:59:00,
2013-06-14 10:05:00,75.7,49.0,29.95,NE,34,2.0,7.0,39,0.00,,,0.00,0,Wunderground v.1.15,2013-06-14 17:05:00,
2013-06-14 10:14:00,76.1,50.0,29.94,NNE,23,5.0,5.0,40,0.00,,,0.00,0,Wunderground v.1.15,2013-06-14 17:14:00,
2013-06-14 10:19:00,76.5,49.7,29.94,NNE,26,8.0,8.0,39,0.00,,,0.00,0,Wunderground v.1.15,2013-06-14 17:19:00,
2013-06-14 10:24:00,76.6,47.6,29.94,NNE,29,8.0,8.0,36,0.00,,,0.00,0,Wunderground v.1.15,2013-06-14 17:24:00,
2013-06-14 10:30:00,76.0,47.1,29.94,NNE,26,3.0,3.0,36,0.00,,,0.00,0,Wunderground v.1.15,2013-06-14 17:30:00,
2013-06-14 10:39:00,76.5,47.6,29.94,NE,45,2.0,2.0,36,0.00,,,0.00,0,Wunderground v.1.15,2013-06-14 17:39:00,
2013-06-14 10:44:00,76.6,47.6,29.95,NE,47,1.0,2.0,36,0.00,,,0.00,0,Wunderground v.1.15,2013-06-14 17:44:00,
2013-06-14 10:59:00,77.1,48.8,29.94,NNE,32,2.0,2.0,37,0.00,,,0.00,0,Wunderground v.1.15,2013-06-14 17:59:00,
2013-06-14 11:04:00,77.7,49.3,29.94,ENE,57,2.0,2.0,37,0.00,,,0.00,0,Wunderground v.1.15,2013-06-14 18:04:00,
2013-06-14 11:10:00,77.9,48.8,29.94,NNE,12,7.0,7.0,36,0.00,,,0.00,0,Wunderground v.1.15,2013-06-14 18:10:00,
2013-06-14 11:19:00,78.0,50.3,29.94,ENE,72,1.0,1.0,38,0.00,,,0.00,0,Wunderground v.1.15,2013-06-14 18:19:00,
2013-06-14 11:24:00,77.6,49.3,29.94,NNE,18,6.0,6.0,37,0.00,,,0.00,0,Wunderground v.1.15,2013-06-14 18:24:00,
2013-06-14 11:29:00,77.5,50.6,29.94,SSE,164,2.0,2.0,39,0.00,,,0.00,0,Wunderground v.1.15,2013-06-14 18:29:00,
2013-06-14 11:34:00,77.8,49.4,29.94,NNE,12,4.0,4.0,37,0.00,,,0.00,0,Wunderground v.1.15,2013-06-14 18:34:00,
2013-06-14 11:40:00,78.5,50.8,29.94,East,97,2.0,2.0,38,0.00,,,0.00,0,Wunderground v.1.15,2013-06-14 18:40:00,
2013-06-14 11:45:00,79.0,51.2,29.93,SSE,163,2.0,2.0,38,0.00,,,0.00,0,Wunderground v.1.15,2013-06-14 18:45:00,
2013-06-14 11:54:00,79.4,50.9,29.93,ENE,71,0.0,0.0,37,0.00,,,0.00,0,Wunderground v.1.15,2013-06-14 18:54:00,
2013-06-14 11:59:00,79.9,50.6,29.93,NNE,30,0.0,0.0,36,0.00,,,0.00,0,Wunderground v.1.15,2013-06-14 18:59:00,
2013-06-14 12:05:00,80.0,50.6,29.93,NNE,28,0.0,0.0,36,0.00,,,0.00,0,Wunderground v.1.15,2013-06-14 19:05:00,
2013-06-14 12:15:00,79.9,50.6,29.93,South,184,4.0,4.0,36,0.00,,,0.00,0,Wunderground v.1.15,2013-06-14 19:15:00,
2013-06-14 12:24:00,80.1,50.7,29.93,South,190,2.0,2.0,36,0.00,,,0.00,0,Wunderground v.1.15,2013-06-14 19:24:00,
2013-06-14 12:29:00,80.4,51.7,29.93,South,179,3.0,3.0,37,0.00,,,0.00,0,Wunderground v.1.15,2013-06-14 19:29:00,
2013-06-14 12:34:00,80.3,50.9,29.92,SSW,204,2.0,3.0,36,0.00,,,0.00,0,Wunderground v.1.15,2013-06-14 19:34:00,
2013-06-14 12:40:00,80.8,52.1,29.92,SSW,203,4.0,4.0,37,0.00,,,0.00,0,Wunderground v.1.15,2013-06-14 19:40:00,
2013-06-14 12:45:00,80.8,50.6,29.92,South,173,1.0,4.0,35,0.00,,,0.00,0,Wunderground v.1.15,2013-06-14 19:45:00,
2013-06-14 12:50:00,80.8,52.1,29.92,South,174,5.0,5.0,37,0.00,,,0.00,0,Wunderground v.1.15,2013-06-14 19:50:00,
2013-06-14 12:59:00,81.3,51.0,29.92,SSW,198,3.0,3.0,35,0.00,,,0.00,0,Wunderground v.1.15,2013-06-14 19:59:00,
2013-06-14 13:04:00,81.0,50.8,29.92,West,261,3.0,3.0,35,0.00,,,0.00,0,Wunderground v.1.15,2013-06-14 20:04:00,
2013-06-14 13:09:00,81.3,51.0,29.92,West,267,3.0,3.0,35,0.00,,,0.00,0,Wunderground v.1.15,2013-06-14 20:09:00,
2013-06-14 13:19:00,82.0,50.1,29.91,West,260,3.0,3.0,33,0.00,,,0.00,0,Wunderground v.1.15,2013-06-14 20:19:00,
2013-06-14 13:24:00,82.8,51.6,29.91,SSW,197,1.0,3.0,34,0.00,,,0.00,0,Wunderground v.1.15,2013-06-14 20:24:00,
2013-06-14 13:34:00,83.8,52.4,29.91,WNW,297,1.0,2.0,34,0.00,,,0.00,0,Wunderground v.1.15,2013-06-14 20:34:00,
2013-06-14 13:39:00,83.6,52.3,29.90,South,179,3.0,3.0,34,0.00,,,0.00,0,Wunderground v.1.15,2013-06-14 20:39:00,
2013-06-14 13:44:00,83.7,52.3,29.90,SW,229,0.0,3.0,34,0.00,,,0.00,0,Wunderground v.1.15,2013-06-14 20:44:00,
2013-06-14 13:50:00,84.5,52.2,29.91,WNW,289,2.0,2.0,33,0.00,,,0.00,0,Wunderground v.1.15,2013-06-14 20:50:00,
2013-06-14 13:55:00,85.0,52.7,29.90,NW,323,3.0,3.0,33,0.00,,,0.00,0,Wunderground v.1.15,2013-06-14 20:55:00,
2013-06-14 14:00:00,84.8,52.5,29.90,WNW,303,3.0,3.0,33,0.00,,,0.00,0,Wunderground v.1.15,2013-06-14 21:00:00,
2013-06-14 14:09:00,84.7,52.4,29.90,NNW,345,4.0,4.0,33,0.00,,,0.00,0,Wunderground v.1.15,2013-06-14 21:09:00,
2013-06-14 14:19:00,84.0,51.8,29.90,NNW,332,4.0,4.0,33,0.00,,,0.00,0,Wunderground v.1.15,2013-06-14 21:19:00,
2013-06-14 14:24:00,84.3,52.9,29.90,NW,316,1.0,4.0,34,0.00,,,0.00,0,Wunderground v.1.15,2013-06-14 21:24:00,
2013-06-14 14:29:00,84.3,54.4,29.89,SW,219,2.0,2.0,36,0.00,,,0.00,0,Wunderground v.1.15,2013-06-14 21:29:00,
2013-06-14 14:39:00,84.1,55.7,29.89,North,352,5.0,5.0,38,0.00,,,0.00,0,Wunderground v.1.15,2013-06-14 21:39:00,
2013-06-14 14:44:00,83.9,57.0,29.89,NW,313,4.0,5.0,40,0.00,,,0.00,0,Wunderground v.1.15,2013-06-14 21:44:00,
2013-06-14 14:49:00,84.9,57.2,29.89,WNW,291,1.0,1.0,39,0.00,,,0.00,0,Wunderground v.1.15,2013-06-14 21:49:00,
2013-06-14 15:05:00,84.7,56.3,29.88,North,349,3.0,3.0,38,0.00,,,0.00,0,Wunderground v.1.15,2013-06-14 22:05:00,
2013-06-14 15:15:00,84.7,55.5,29.88,North,356,5.0,5.0,37,0.00,,,0.00,0,Wunderground v.1.15,2013-06-14 22:15:00,
2013-06-14 15:24:00,85.4,56.9,29.88,SSW,192,1.0,1.0,38,0.00,,,0.00,0,Wunderground v.1.15,2013-06-14 22:24:00,
2013-06-14 15:29:00,86.3,57.0,29.88,SSW,201,5.0,5.0,37,0.00,,,0.00,0,Wunderground v.1.15,2013-06-14 22:29:00,
2013-06-14 15:34:00,85.8,57.3,29.87,WNW,285,4.0,5.0,38,0.00,,,0.00,0,Wunderground v.1.15,2013-06-14 22:34:00,
2013-06-14 15:40:00,85.2,56.7,29.87,North,0,1.0,1.0,38,0.00,,,0.00,0,Wunderground v.1.15,2013-06-14 22:40:00,
2013-06-14 15:45:00,85.6,57.8,29.87,SW,234,0.0,1.0,39,0.00,,,0.00,0,Wunderground v.1.15,2013-06-14 22:45:00,
2013-06-14 15:54:00,84.7,56.3,29.87,West,263,0.0,6.0,38,0.00,,,0.00,0,Wunderground v.1.15,2013-06-14 22:54:00,
2013-06-14 15:59:00,85.0,56.5,29.87,North,356,2.0,2.0,38,0.00,,,0.00,0,Wunderground v.1.15,2013-06-14 22:59:00,
2013-06-14 16:04:00,84.8,56.4,29.86,South,190,3.0,3.0,38,0.00,,,0.00,0,Wunderground v.1.15,2013-06-14 23:04:00,
2013-06-14 16:10:00,85.4,56.2,29.86,NW,309,2.0,2.0,37,0.00,,,0.00,0,Wunderground v.1.15,2013-06-14 23:10:00,
2013-06-14 16:20:00,86.0,56.7,29.86,SSW,197,2.0,2.0,37,0.00,,,0.00,0,Wunderground v.1.15,2013-06-14 23:20:00,
2013-06-14 16:25:00,85.9,56.6,29.85,NNW,338,4.0,4.0,37,0.00,,,0.00,0,Wunderground v.1.15,2013-06-14 23:25:00,
2013-06-14 16:34:00,85.5,57.0,29.85,NW,309,5.0,5.0,38,0.00,,,0.00,0,Wunderground v.1.15,2013-06-14 23:34:00,
2013-06-14 16:39:00,85.3,56.1,29.85,NNW,330,8.0,8.0,37,0.00,,,0.00,0,Wunderground v.1.15,2013-06-14 23:39:00,
2013-06-14 16:44:00,84.8,56.4,29.85,WNW,283,4.0,8.0,38,0.00,,,0.00,0,Wunderground v.1.15,2013-06-14 23:44:00,
2013-06-14 16:49:00,84.2,55.1,29.86,WNW,295,4.0,4.0,37,0.00,,,0.00,0,Wunderground v.1.15,2013-06-14 23:49:00,
2013-06-14 16:59:00,83.6,54.6,29.85,NW,325,1.0,1.0,37,0.00,,,0.00,0,Wunderground v.1.15,2013-06-14 23:59:00,
2013-06-14 17:05:00,83.8,55.5,29.85,West,275,2.0,2.0,38,0.00,,,0.00,0,Wunderground v.1.15,2013-06-15 00:05:00,
2013-06-14 17:15:00,84.0,54.9,29.85,WNW,291,3.0,6.0,37,0.00,,,0.00,0,Wunderground v.1.15,2013-06-15 00:15:00,
2013-06-14 17:24:00,83.9,54.8,29.85,West,276,3.0,3.0,37,0.00,,,0.00,0,Wunderground v.1.15,2013-06-15 00:24:00,
2013-06-14 17:29:00,83.2,54.2,29.85,NW,321,6.0,6.0,37,0.00,,,0.00,0,Wunderground v.1.15,2013-06-15 00:29:00,
2013-06-14 17:34:00,82.7,53.8,29.85,NW,308,5.0,6.0,37,0.00,,,0.00,0,Wunderground v.1.15,2013-06-15 00:34:00,
2013-06-14 17:40:00,82.5,53.6,29.85,WNW,295,8.0,8.0,37,0.00,,,0.00,0,Wunderground v.1.15,2013-06-15 00:40:00,
2013-06-14 17:49:00,81.8,53.0,29.85,NNW,328,11.0,11.0,37,0.00,,,0.00,0,Wunderground v.1.15,2013-06-15 00:49:00,
2013-06-14 17:54:00,81.4,53.4,29.85,WNW,288,6.0,11.0,38,0.00,,,0.00,0,Wunderground v.1.15,2013-06-15 00:54:00,
2013-06-14 17:59:00,81.2,53.2,29.85,NNW,330,8.0,8.0,38,0.00,,,0.00,0,Wunderground v.1.15,2013-06-15 00:59:00,
2013-06-14 18:04:00,80.7,52.7,29.85,NNW,331,9.0,9.0,38,0.00,,,0.00,0,Wunderground v.1.15,2013-06-15 01:04:00,
2013-06-14 18:10:00,80.7,53.4,29.85,NW,313,6.0,6.0,39,0.00,,,0.00,0,Wunderground v.1.15,2013-06-15 01:10:00,
2013-06-14 18:19:00,80.5,53.3,29.85,NNW,330,3.0,3.0,39,0.00,,,0.00,0,Wunderground v.1.15,2013-06-15 01:19:00,
2013-06-14 18:24:00,80.6,53.4,29.85,WNW,290,3.0,3.0,39,0.00,,,0.00,0,Wunderground v.1.15,2013-06-15 01:24:00,
2013-06-14 18:29:00,80.8,53.5,29.85,WNW,296,1.0,1.0,39,0.00,,,0.00,0,Wunderground v.1.15,2013-06-15 01:29:00,
2013-06-14 18:34:00,81.1,53.8,29.85,WNW,293,2.0,2.0,39,0.00,,,0.00,0,Wunderground v.1.15,2013-06-15 01:34:00,
2013-06-14 18:40:00,80.9,53.6,29.85,WNW,303,4.0,4.0,39,0.00,,,0.00,0,Wunderground v.1.15,2013-06-15 01:40:00,
2013-06-14 18:49:00,80.3,53.1,29.85,NNW,336,6.0,6.0,39,0.00,,,0.00,0,Wunderground v.1.15,2013-06-15 01:49:00,
2013-06-14 18:55:00,80.1,52.9,29.85,NNW,332,5.0,6.0,39,0.00,,,0.00,0,Wunderground v.1.15,2013-06-15 01:55:00,
2013-06-14 19:00:00,80.1,53.6,29.85,WNW,299,7.0,7.0,40,0.00,,,0.00,0,Wunderground v.1.15,2013-06-15 02:00:00,
2013-06-14 19:09:00,80.0,54.2,29.85,WNW,295,0.0,0.0,41,0.00,,,0.00,0,Wunderground v.1.15,2013-06-15 02:09:00,
2013-06-14 19:14:00,79.8,54.0,29.85,WNW,295,3.0,3.0,41,0.00,,,0.00,0,Wunderground v.1.15,2013-06-15 02:14:00,
2013-06-14 19:19:00,79.3,53.6,29.85,NW,308,1.0,1.0,41,0.00,,,0.00,0,Wunderground v.1.15,2013-06-15 02:19:00,
2013-06-14 19:24:00,79.0,53.3,29.85,WNW,287,1.0,1.0,41,0.00,,,0.00,0,Wunderground v.1.15,2013-06-15 02:24:00,
2013-06-14 19:29:00,78.8,54.4,29.85,WNW,296,0.0,0.0,43,0.00,,,0.00,0,Wunderground v.1.15,2013-06-15 02:29:00,
2013-06-14 19:34:00,78.4,54.7,29.85,SW,232,0.0,0.0,44,0.00,,,0.00,0,Wunderground v.1.15,2013-06-15 02:34:00,
2013-06-14 19:40:00,78.1,55.0,29.86,West,265,0.0,0.0,45,0.00,,,0.00,0,Wunderground v.1.15,2013-06-15 02:40:00,
2013-06-14 19:45:00,77.6,54.6,29.86,South,189,3.0,3.0,45,0.00,,,0.00,0,Wunderground v.1.15,2013-06-15 02:45:00,
2013-06-14 19:54:00,75.1,54.1,29.86,SSW,193,3.0,3.0,48,0.00,,,0.00,0,Wunderground v.1.15,2013-06-15 02:54:00,
2013-06-14 19:59:00,74.0,53.6,29.86,South,191,1.0,1.0,49,0.00,,,0.00,0,Wunderground v.1.15,2013-06-15 02:59:00,
2013-06-14 20:09:00,72.8,53.1,29.86,SSW,202,0.0,0.0,50,0.00,,,0.00,0,Wunderground v.1.15,2013-06-15 03:09:00,
2013-06-14 20:14:00,72.4,53.2,29.86,SW,220,1.0,1.0,51,0.00,,,0.00,0,Wunderground v.1.15,2013-06-15 03:14:00,
2013-06-14 20:20:00,71.8,53.2,29.87,SSW,196,4.0,4.0,52,0.00,,,0.00,0,Wunderground v.1.15,2013-06-15 03:20:00,
2013-06-14 20:25:00,71.3,52.8,29.87,SSW,199,0.0,4.0,52,0.00,,,0.00,0,Wunderground v.1.15,2013-06-15 03:25:00,
2013-06-14 20:34:00,70.5,52.0,29.86,SSW,196,0.0,0.0,52,0.00,,,0.00,0,Wunderground v.1.15,2013-06-15 03:34:00,
2013-06-14 20:39:00,70.1,52.2,29.86,SSW,192,2.0,2.0,53,0.00,,,0.00,0,Wunderground v.1.15,2013-06-15 03:39:00,
2013-06-14 20:44:00,69.8,52.4,29.87,SSW,193,0.0,2.0,54,0.00,,,0.00,0,Wunderground v.1.15,2013-06-15 03:44:00,
2013-06-14 20:50:00,69.5,52.1,29.87,SSW,195,0.0,0.0,54,0.00,,,0.00,0,Wunderground v.1.15,2013-06-15 03:50:00,
2013-06-14 20:59:00,68.9,51.6,29.86,SSW,195,1.0,1.0,54,0.00,,,0.00,0,Wunderground v.1.15,2013-06-15 03:59:00,
2013-06-14 21:04:00,68.6,50.8,29.87,SSW,195,2.0,2.0,53,0.00,,,0.00,0,Wunderground v.1.15,2013-06-15 04:04:00,
2013-06-14 21:09:00,68.3,49.5,29.87,SSW,200,2.0,2.0,51,0.00,,,0.00,0,Wunderground v.1.15,2013-06-15 04:09:00,
2013-06-14 21:54:00,67.3,47.5,29.87,South,189,3.0,3.0,49,0.00,,,0.00,0,Wunderground v.1.15,2013-06-15 04:54:00,
2013-06-14 21:59:00,67.2,46.8,29.87,SSW,198,3.0,3.0,48,0.00,,,0.00,0,Wunderground v.1.15,2013-06-15 04:59:00,
2013-06-14 22:04:00,67.1,46.2,29.87,SSW,199,4.0,4.0,47,0.00,,,0.00,0,Wunderground v.1.15,2013-06-15 05:04:00,
2013-06-14 22:09:00,67.1,46.2,29.87,South,180,2.0,2.0,47,0.00,,,0.00,0,Wunderground v.1.15,2013-06-15 05:09:00,
2013-06-14 22:14:00,67.0,46.1,29.87,South,188,0.0,2.0,47,0.00,,,0.00,0,Wunderground v.1.15,2013-06-15 05:14:00,
2013-06-14 22:20:00,66.8,45.9,29.87,South,190,0.0,0.0,47,0.00,,,0.00,0,Wunderground v.1.15,2013-06-15 05:20:00,
2013-06-14 22:24:00,66.5,45.6,29.87,South,190,1.0,1.0,47,0.00,,,0.00,0,Wunderground v.1.15,2013-06-15 05:24:00,
2013-06-14 22:30:00,66.3,45.5,29.87,South,190,0.0,0.0,47,0.00,,,0.00,0,Wunderground v.1.15,2013-06-15 05:30:00,
2013-06-14 22:39:00,66.7,44.7,29.87,SSW,202,0.0,0.0,45,0.00,,,0.00,0,Wunderground v.1.15,2013-06-15 05:39:00,
2013-06-14 22:45:00,67.2,45.1,29.87,SSW,200,2.0,2.0,45,0.00,,,0.00,0,Wunderground v.1.15,2013-06-15 05:45:00,
2013-06-14 22:50:00,67.5,44.8,29.87,SSW,193,0.0,0.0,44,0.00,,,0.00,0,Wunderground v.1.15,2013-06-15 05:50:00,
2013-06-14 22:55:00,67.5,44.8,29.87,SSW,192,0.0,0.0,44,0.00,,,0.00,0,Wunderground v.1.15,2013-06-15 05:55:00,
2013-06-14 23:04:00,67.0,44.4,29.87,SSW,192,0.0,0.0,44,0.00,,,0.00,0,Wunderground v.1.15,2013-06-15 06:04:00,
2013-06-14 23:09:00,66.6,44.6,29.87,SSW,193,1.0,1.0,45,0.00,,,0.00,0,Wunderground v.1.15,2013-06-15 06:09:00,
2013-06-14 23:14:00,66.2,46.5,29.87,South,184,1.0,1.0,49,0.00,,,0.00,0,Wunderground v.1.15,2013-06-15 06:14:00,
2013-06-14 23:19:00,65.7,46.0,29.87,SSW,193,2.0,2.0,49,0.00,,,0.00,0,Wunderground v.1.15,2013-06-15 06:19:00,
2013-06-14 23:24:00,65.3,46.2,29.87,South,185,3.0,3.0,50,0.00,,,0.00,0,Wunderground v.1.15,2013-06-15 06:24:00,
2013-06-14 23:29:00,64.9,44.7,29.86,South,189,1.0,1.0,48,0.00,,,0.00,0,Wunderground v.1.15,2013-06-15 06:29:00,
2013-06-14 23:34:00,64.7,46.7,29.86,South,183,3.0,3.0,52,0.00,,,0.00,0,Wunderground v.1.15,2013-06-15 06:34:00,
2013-06-14 23:40:00,64.4,46.9,29.86,South,189,2.0,2.0,53,0.00,,,0.00,0,Wunderground v.1.15,2013-06-15 06:40:00,
2013-06-14 23:50:00,63.9,43.8,29.86,South,186,1.0,1.0,48,0.00,,,0.00,0,Wunderground v.1.15,2013-06-15 06:50:00,
2013-06-14 23:55:00,63.3,45.4,29.86,SSW,196,1.0,1.0,52,0.00,,,0.00,0,Wunderground v.1.15,2013-06-15 06:55:00,